DLH4MJ EDLW-LFSB

Flight info

Callsign DLH4MJ
Flight time N/A
Altitude 31000
Route GMH8Q GMH Q603 TESGA L603 BOMBI T721 SUNEG T715 DENEL/N0414F230 T715 LIPKA/N0360F130 T715 RIGVI DCT
Aircraft A320/M-SDE3FGHIRWY/LB1

Departure

Time 2026-05-05 12:30
Airport Dortmund Airport (EDLW)

Arrival

Time N/A
Airport EuroAirport Basel–Mulhouse–Freiburg (LFSB)
Time Latitude Longitude Altitude Speed Heading
2026-05-05 12:12 51.51640 7.61469 420 ft 0 kts 331°
2026-05-05 12:26 51.51651 7.61459 415 ft 10 kts 331°
2026-05-05 12:26 51.51685 7.61350 420 ft 12 kts 253°
2026-05-05 12:26 51.51650 7.61247 417 ft 9 kts 241°
2026-05-05 12:27 51.51605 7.61117 413 ft 18 kts 242°
2026-05-05 12:27 51.51551 7.60937 422 ft 17 kts 240°
2026-05-05 12:27 51.51496 7.60783 417 ft 15 kts 240°
2026-05-05 12:27 51.51440 7.60620 421 ft 18 kts 241°
2026-05-05 12:28 51.51382 7.60459 426 ft 16 kts 240°
2026-05-05 12:28 51.51362 7.60313 426 ft 12 kts 300°
2026-05-05 12:28 51.51436 7.60243 420 ft 13 kts 337°
2026-05-05 12:28 51.51511 7.60306 422 ft 10 kts 61°
2026-05-05 12:29 51.51512 7.60310 423 ft 0 kts 61°
2026-05-05 12:29 51.51529 7.60360 418 ft 26 kts 62°
2026-05-05 12:29 51.51758 7.61006 418 ft 103 kts 60°
2026-05-05 12:30 51.52227 7.62288 422 ft 158 kts 56°
2026-05-05 12:30 51.52781 7.63837 1089 ft 160 kts 60°
2026-05-05 12:30 51.53298 7.65423 1798 ft 162 kts 60°
2026-05-05 12:30 51.53884 7.67109 2171 ft 183 kts 60°
2026-05-05 12:31 51.54561 7.69004 2455 ft 209 kts 60°
2026-05-05 12:31 51.55320 7.71102 2886 ft 230 kts 60°
2026-05-05 12:31 51.56115 7.73480 3345 ft 252 kts 71°
2026-05-05 12:31 51.56197 7.76323 3960 ft 264 kts 107°
2026-05-05 12:32 51.55229 7.78816 4763 ft 268 kts 142°
2026-05-05 12:32 51.53557 7.80058 5648 ft 268 kts 173°
2026-05-05 12:32 51.51721 7.79718 6528 ft 270 kts 199°
2026-05-05 12:32 51.49995 7.78516 7432 ft 271 kts 206°
2026-05-05 12:33 51.48302 7.77168 8308 ft 273 kts 202°
2026-05-05 12:33 51.46520 7.76078 9195 ft 275 kts 199°
2026-05-05 12:33 51.44680 7.75167 9984 ft 280 kts 189°
2026-05-05 12:33 51.42728 7.75084 10719 ft 284 kts 174°
2026-05-05 12:34 51.40759 7.75811 11068 ft 305 kts 161°
2026-05-05 12:34 51.38696 7.77120 11401 ft 325 kts 160°
2026-05-05 12:34 51.36555 7.78384 11860 ft 337 kts 161°